Year,Month,Day,Hour,Minute,Value (Times are PST for temperature in C)
2016,07,06,00,00,11.90
2016,07,06,00,01,11.90
2016,07,06,00,02,11.90
2016,07,06,00,03,11.90
2016,07,06,00,04,11.90
2016,07,06,00,05,11.90
2016,07,06,00,06,11.80
2016,07,06,00,07,11.80
2016,07,06,00,08,11.80
2016,07,06,00,09,11.80
2016,07,06,00,10,11.80
2016,07,06,00,11,11.80
2016,07,06,00,12,11.80
2016,07,06,00,13,11.80
2016,07,06,00,14,11.80
2016,07,06,00,15,11.80
2016,07,06,00,16,11.80
2016,07,06,00,17,11.80
2016,07,06,00,18,11.80
2016,07,06,00,19,11.70
2016,07,06,00,20,11.70
2016,07,06,00,21,11.70
2016,07,06,00,22,11.70
2016,07,06,00,23,11.70
2016,07,06,00,24,11.60
2016,07,06,00,25,11.60
2016,07,06,00,26,11.60
2016,07,06,00,27,11.60
2016,07,06,00,28,11.60
2016,07,06,00,29,11.60
2016,07,06,00,30,11.60
2016,07,06,00,31,11.60
2016,07,06,00,32,11.50
2016,07,06,00,33,11.50
2016,07,06,00,34,11.50
2016,07,06,00,35,11.50
2016,07,06,00,36,11.50
2016,07,06,00,37,11.50
2016,07,06,00,38,11.50
2016,07,06,00,39,11.40
2016,07,06,00,40,11.40
2016,07,06,00,41,11.40
2016,07,06,00,42,11.40
2016,07,06,00,43,11.40
2016,07,06,00,44,11.40
2016,07,06,00,45,11.40
2016,07,06,00,46,11.30
2016,07,06,00,47,11.30
2016,07,06,00,48,11.30
2016,07,06,00,49,11.30
2016,07,06,00,50,11.30
2016,07,06,00,51,11.30
2016,07,06,00,52,11.30
2016,07,06,00,53,11.30
2016,07,06,00,54,11.30
2016,07,06,00,55,11.30
2016,07,06,00,56,11.30
2016,07,06,00,57,11.30
2016,07,06,00,58,11.30
2016,07,06,00,59,11.30
2016,07,06,01,00,11.20
2016,07,06,01,01,11.20
2016,07,06,01,02,11.20
2016,07,06,01,03,11.20
2016,07,06,01,04,11.20
2016,07,06,01,05,11.20
2016,07,06,01,06,11.20
2016,07,06,01,07,11.20
2016,07,06,01,08,11.20
2016,07,06,01,09,11.20
2016,07,06,01,10,11.20
2016,07,06,01,11,11.20
2016,07,06,01,12,11.20
2016,07,06,01,13,11.20
2016,07,06,01,14,11.10
2016,07,06,01,15,11.10
2016,07,06,01,16,11.10
2016,07,06,01,17,11.10
2016,07,06,01,18,11.10
2016,07,06,01,19,11.10
2016,07,06,01,20,11.10
2016,07,06,01,21,11.00
2016,07,06,01,22,11.10
2016,07,06,01,23,11.10
2016,07,06,01,24,11.10
2016,07,06,01,25,11.10
2016,07,06,01,26,11.10
2016,07,06,01,27,11.20
2016,07,06,01,28,11.20
2016,07,06,01,29,11.20
2016,07,06,01,30,11.20
2016,07,06,01,31,11.20
2016,07,06,01,32,11.20
2016,07,06,01,33,11.20
2016,07,06,01,34,11.20
2016,07,06,01,35,11.30
2016,07,06,01,36,11.30
2016,07,06,01,37,11.30
2016,07,06,01,38,11.30
2016,07,06,01,39,11.30
2016,07,06,01,40,11.30
2016,07,06,01,41,11.30
2016,07,06,01,42,11.30
2016,07,06,01,43,11.30
2016,07,06,01,44,11.30
2016,07,06,01,45,11.40
2016,07,06,01,46,11.40
2016,07,06,01,47,11.40
2016,07,06,01,48,11.40
2016,07,06,01,49,11.40
2016,07,06,01,50,11.40
2016,07,06,01,51,11.40
2016,07,06,01,52,11.40
2016,07,06,01,53,11.40
2016,07,06,01,54,11.40
2016,07,06,01,55,11.40
2016,07,06,01,56,11.40
2016,07,06,01,57,11.50
2016,07,06,01,58,11.50
2016,07,06,01,59,11.50
2016,07,06,02,00,11.50
2016,07,06,02,01,11.50
2016,07,06,02,02,11.50
2016,07,06,02,03,11.50
2016,07,06,02,04,11.50
2016,07,06,02,05,11.50
2016,07,06,02,06,11.50
2016,07,06,02,07,11.50
2016,07,06,02,08,11.50
2016,07,06,02,09,11.50
2016,07,06,02,10,11.50
2016,07,06,02,11,11.50
2016,07,06,02,12,11.50
2016,07,06,02,13,11.50
2016,07,06,02,14,11.50
2016,07,06,02,15,11.50
2016,07,06,02,16,11.50
2016,07,06,02,17,11.50
2016,07,06,02,18,11.50
2016,07,06,02,19,11.60
2016,07,06,02,20,11.60
2016,07,06,02,21,11.60
2016,07,06,02,22,11.60
2016,07,06,02,23,11.60
2016,07,06,02,24,11.60
2016,07,06,02,25,11.60
2016,07,06,02,26,11.60
2016,07,06,02,27,11.60
2016,07,06,02,28,11.60
2016,07,06,02,29,11.60
2016,07,06,02,30,11.60
2016,07,06,02,31,11.60
2016,07,06,02,32,11.60
2016,07,06,02,33,11.60
2016,07,06,02,34,11.60
2016,07,06,02,35,11.60
2016,07,06,02,36,11.60
2016,07,06,02,37,11.60
2016,07,06,02,38,11.60
2016,07,06,02,39,11.60
2016,07,06,02,40,11.60
2016,07,06,02,41,11.60
2016,07,06,02,42,11.60
2016,07,06,02,43,11.60
2016,07,06,02,44,11.60
2016,07,06,02,45,11.60
2016,07,06,02,46,11.60
2016,07,06,02,47,11.60
2016,07,06,02,48,11.60
2016,07,06,02,49,11.50
2016,07,06,02,50,11.50
2016,07,06,02,51,11.50
2016,07,06,02,52,11.50
2016,07,06,02,53,11.50
2016,07,06,02,54,11.50
2016,07,06,02,55,11.40
2016,07,06,02,56,11.40
2016,07,06,02,57,11.30
2016,07,06,02,58,11.30
2016,07,06,02,59,11.30
2016,07,06,03,00,11.20
2016,07,06,03,01,11.20
2016,07,06,03,02,11.30
2016,07,06,03,03,11.30
2016,07,06,03,04,11.30
2016,07,06,03,05,11.30
2016,07,06,03,06,11.30
2016,07,06,03,07,11.30
2016,07,06,03,08,11.30
2016,07,06,03,09,11.40
2016,07,06,03,10,11.40
2016,07,06,03,11,11.40
2016,07,06,03,12,11.40
2016,07,06,03,13,11.30
2016,07,06,03,14,11.30
2016,07,06,03,15,11.30
2016,07,06,03,16,11.30
2016,07,06,03,17,11.30
2016,07,06,03,18,11.30
2016,07,06,03,19,11.30
2016,07,06,03,20,11.20
2016,07,06,03,21,11.20
2016,07,06,03,22,11.20
2016,07,06,03,23,11.20
2016,07,06,03,24,11.20
2016,07,06,03,25,11.10
2016,07,06,03,26,11.10
2016,07,06,03,27,11.10
2016,07,06,03,28,11.10
2016,07,06,03,29,11.10
2016,07,06,03,30,11.10
2016,07,06,03,31,11.10
2016,07,06,03,32,11.00
2016,07,06,03,33,11.00
2016,07,06,03,34,11.00
2016,07,06,03,35,10.90
2016,07,06,03,36,10.90
2016,07,06,03,37,10.90
2016,07,06,03,38,10.90
2016,07,06,03,39,10.90
2016,07,06,03,40,10.90
2016,07,06,03,41,10.90
2016,07,06,03,42,10.90
2016,07,06,03,43,10.90
2016,07,06,03,44,10.80
2016,07,06,03,45,10.80
2016,07,06,03,46,10.80
2016,07,06,03,47,10.80
2016,07,06,03,48,10.80
2016,07,06,03,49,10.80
2016,07,06,03,50,10.80
2016,07,06,03,51,10.70
2016,07,06,03,52,10.70
2016,07,06,03,53,10.70
2016,07,06,03,54,10.70
2016,07,06,03,55,10.70
2016,07,06,03,56,10.70
2016,07,06,03,57,10.70
2016,07,06,03,58,10.70
2016,07,06,03,59,10.70
2016,07,06,04,00,10.70
2016,07,06,04,01,10.70
2016,07,06,04,02,10.70
2016,07,06,04,03,10.70
2016,07,06,04,04,10.70
2016,07,06,04,05,10.60
2016,07,06,04,06,10.60
2016,07,06,04,07,10.60
2016,07,06,04,08,10.60
2016,07,06,04,09,10.60
2016,07,06,04,10,10.50
2016,07,06,04,11,10.40
2016,07,06,04,12,10.40
2016,07,06,04,13,10.40
2016,07,06,04,14,10.40
2016,07,06,04,15,10.40
2016,07,06,04,16,10.40
2016,07,06,04,17,10.30
2016,07,06,04,18,10.30
2016,07,06,04,19,10.30
2016,07,06,04,20,10.30
2016,07,06,04,21,10.30
2016,07,06,04,22,10.30
2016,07,06,04,23,10.20
2016,07,06,04,24,10.20
2016,07,06,04,25,10.20
2016,07,06,04,26,10.20
2016,07,06,04,27,10.30
2016,07,06,04,28,10.30
2016,07,06,04,29,10.30
2016,07,06,04,30,10.30
2016,07,06,04,31,10.30
2016,07,06,04,32,10.30
2016,07,06,04,33,10.30
2016,07,06,04,34,10.30
2016,07,06,04,35,10.30
2016,07,06,04,36,10.30
2016,07,06,04,37,10.30
2016,07,06,04,38,10.20
2016,07,06,04,39,10.20
2016,07,06,04,40,10.20
2016,07,06,04,41,10.20
2016,07,06,04,42,10.20
2016,07,06,04,43,10.20
2016,07,06,04,44,10.20
2016,07,06,04,45,10.20
2016,07,06,04,46,10.20
2016,07,06,04,47,10.20
2016,07,06,04,48,10.20
2016,07,06,04,49,10.20
2016,07,06,04,50,10.20
2016,07,06,04,51,10.30
2016,07,06,04,52,10.30
2016,07,06,04,53,10.20
2016,07,06,04,54,10.20
2016,07,06,04,55,10.20
2016,07,06,04,56,10.20
2016,07,06,04,57,10.20
2016,07,06,04,58,10.20
2016,07,06,04,59,10.20
2016,07,06,05,00,10.20
2016,07,06,05,01,10.20
2016,07,06,05,02,10.20
2016,07,06,05,03,10.10
2016,07,06,05,04,10.10
2016,07,06,05,05,10.10
2016,07,06,05,06,10.10
2016,07,06,05,07,10.10
2016,07,06,05,08,10.10
2016,07,06,05,09,10.10
2016,07,06,05,10,10.10
2016,07,06,05,11,10.10
2016,07,06,05,12,10.10
2016,07,06,05,13,10.10
2016,07,06,05,14,10.10
2016,07,06,05,15,10.10
2016,07,06,05,16,10.10
2016,07,06,05,17,10.10
2016,07,06,05,18,10.10
2016,07,06,05,19,10.10
2016,07,06,05,20,10.10
2016,07,06,05,21,10.00
2016,07,06,05,22,10.00
2016,07,06,05,23,10.00
2016,07,06,05,24,9.90
2016,07,06,05,25,9.90
2016,07,06,05,26,9.90
2016,07,06,05,27,9.90
2016,07,06,05,28,9.90
2016,07,06,05,29,9.90
2016,07,06,05,30,9.90
2016,07,06,05,31,9.90
2016,07,06,05,32,9.90
2016,07,06,05,33,9.90
2016,07,06,05,34,10.00
2016,07,06,05,35,10.00
2016,07,06,05,36,10.00
2016,07,06,05,37,10.10
2016,07,06,05,38,10.10
2016,07,06,05,39,10.10
2016,07,06,05,40,10.10
2016,07,06,05,41,10.00
2016,07,06,05,42,10.00
2016,07,06,05,43,10.00
2016,07,06,05,44,9.90
2016,07,06,05,45,9.90
2016,07,06,05,46,9.90
2016,07,06,05,47,9.90
2016,07,06,05,48,9.80
2016,07,06,05,49,9.80
2016,07,06,05,50,9.80
2016,07,06,05,51,9.80
2016,07,06,05,52,9.80
2016,07,06,05,53,9.80
2016,07,06,05,54,9.80
2016,07,06,05,55,9.80
2016,07,06,05,56,9.70
2016,07,06,05,57,9.70
2016,07,06,05,58,9.70
2016,07,06,05,59,9.70
2016,07,06,06,00,9.70
2016,07,06,06,01,9.80
2016,07,06,06,02,9.80
2016,07,06,06,03,9.80
2016,07,06,06,04,9.80
2016,07,06,06,05,9.80
2016,07,06,06,06,9.90
2016,07,06,06,07,9.90
2016,07,06,06,08,9.90
2016,07,06,06,09,10.00
2016,07,06,06,10,10.00
2016,07,06,06,11,10.00
2016,07,06,06,12,10.00
2016,07,06,06,13,10.00
2016,07,06,06,14,10.00
2016,07,06,06,15,10.00
2016,07,06,06,16,10.10
2016,07,06,06,17,10.10
2016,07,06,06,18,10.10
2016,07,06,06,19,10.20
2016,07,06,06,20,10.20
2016,07,06,06,21,10.30
2016,07,06,06,22,10.30
2016,07,06,06,23,10.30
2016,07,06,06,24,10.40
2016,07,06,06,25,10.40
2016,07,06,06,26,10.50
2016,07,06,06,27,10.60
2016,07,06,06,28,10.60
2016,07,06,06,29,10.70
2016,07,06,06,30,10.70
2016,07,06,06,31,10.80
2016,07,06,06,32,10.80
2016,07,06,06,33,10.80
2016,07,06,06,34,10.80
2016,07,06,06,35,10.80
2016,07,06,06,36,10.90
2016,07,06,06,37,10.90
2016,07,06,06,38,10.90
2016,07,06,06,39,11.00
2016,07,06,06,40,11.00
2016,07,06,06,41,11.10
2016,07,06,06,42,11.10
2016,07,06,06,43,11.20
2016,07,06,06,44,11.20
2016,07,06,06,45,11.30
2016,07,06,06,46,11.30
2016,07,06,06,47,11.40
2016,07,06,06,48,11.40
2016,07,06,06,49,11.50
2016,07,06,06,50,11.50
2016,07,06,06,51,11.60
2016,07,06,06,52,11.60
2016,07,06,06,53,11.70
2016,07,06,06,54,11.70
2016,07,06,06,55,11.70
2016,07,06,06,56,11.80
2016,07,06,06,57,11.80
2016,07,06,06,58,11.90
2016,07,06,06,59,11.90
2016,07,06,07,00,12.00
2016,07,06,07,01,12.00
2016,07,06,07,02,12.00
2016,07,06,07,03,12.00
2016,07,06,07,04,12.00
2016,07,06,07,05,12.00
2016,07,06,07,06,12.00
2016,07,06,07,07,12.00
2016,07,06,07,08,12.10
2016,07,06,07,09,12.10
2016,07,06,07,10,12.10
2016,07,06,07,11,12.10
2016,07,06,07,12,12.10
2016,07,06,07,13,12.10
2016,07,06,07,14,12.10
2016,07,06,07,15,12.10
2016,07,06,07,16,12.10
2016,07,06,07,17,12.10
2016,07,06,07,18,12.10
2016,07,06,07,19,12.10
2016,07,06,07,20,12.10
2016,07,06,07,21,12.10
2016,07,06,07,22,12.10
2016,07,06,07,23,12.10
2016,07,06,07,24,12.10
2016,07,06,07,25,12.10
2016,07,06,07,26,12.10
2016,07,06,07,27,12.10
2016,07,06,07,28,12.10
2016,07,06,07,29,12.10
2016,07,06,07,30,12.10
2016,07,06,07,31,12.10
2016,07,06,07,32,12.10
2016,07,06,07,33,12.10
2016,07,06,07,34,12.10
2016,07,06,07,35,12.20
2016,07,06,07,36,12.20
2016,07,06,07,37,12.20
2016,07,06,07,38,12.20
2016,07,06,07,39,12.20
2016,07,06,07,40,12.20
2016,07,06,07,41,12.20
2016,07,06,07,42,12.20
2016,07,06,07,43,12.20
2016,07,06,07,44,12.20
2016,07,06,07,45,12.30
2016,07,06,07,46,12.30
2016,07,06,07,47,12.30
2016,07,06,07,48,12.30
2016,07,06,07,49,12.30
2016,07,06,07,50,12.30
2016,07,06,07,51,12.40
2016,07,06,07,52,12.40
2016,07,06,07,53,12.40
2016,07,06,07,54,12.50
2016,07,06,07,55,12.50
2016,07,06,07,56,12.50
2016,07,06,07,57,12.60
2016,07,06,07,58,12.60
2016,07,06,07,59,12.60
2016,07,06,08,00,12.60
2016,07,06,08,01,12.60
2016,07,06,08,02,12.70
2016,07,06,08,03,12.70
2016,07,06,08,04,12.70
2016,07,06,08,05,12.70
2016,07,06,08,06,12.70
2016,07,06,08,07,12.70
2016,07,06,08,08,12.80
2016,07,06,08,09,12.80
2016,07,06,08,10,12.80
2016,07,06,08,11,12.80
2016,07,06,08,12,12.80
2016,07,06,08,13,12.90
2016,07,06,08,14,12.90
2016,07,06,08,15,12.90
2016,07,06,08,16,12.90
2016,07,06,08,17,12.90
2016,07,06,08,18,13.00
2016,07,06,08,19,13.00
2016,07,06,08,20,13.10
2016,07,06,08,21,13.10
2016,07,06,08,22,13.10
2016,07,06,08,23,13.10
2016,07,06,08,24,13.10
2016,07,06,08,25,13.20
2016,07,06,08,26,13.20
2016,07,06,08,27,13.20
2016,07,06,08,28,13.20
2016,07,06,08,29,13.30
2016,07,06,08,30,13.30
2016,07,06,08,31,13.30
2016,07,06,08,32,13.30
2016,07,06,08,33,13.40
2016,07,06,08,34,13.40
2016,07,06,08,35,13.40
2016,07,06,08,36,13.40
2016,07,06,08,37,13.50
2016,07,06,08,38,13.50
2016,07,06,08,39,13.50
2016,07,06,08,40,13.50
2016,07,06,08,41,13.60
2016,07,06,08,42,13.60
2016,07,06,08,43,13.60
2016,07,06,08,44,13.60
2016,07,06,08,45,13.60
2016,07,06,08,46,13.60
2016,07,06,08,47,13.70
2016,07,06,08,48,13.70
2016,07,06,08,49,13.70
2016,07,06,08,50,13.70
2016,07,06,08,51,13.70
2016,07,06,08,52,13.70
2016,07,06,08,53,13.80
2016,07,06,08,54,13.80
2016,07,06,08,55,13.80
2016,07,06,08,56,13.80
2016,07,06,08,57,13.90
2016,07,06,08,58,13.90
2016,07,06,08,59,13.90
2016,07,06,09,00,14.00
2016,07,06,09,01,14.10
2016,07,06,09,02,14.10
2016,07,06,09,03,14.10
2016,07,06,09,04,14.10
2016,07,06,09,05,14.20
2016,07,06,09,06,14.20
2016,07,06,09,07,14.20
2016,07,06,09,08,14.20
2016,07,06,09,09,14.20
2016,07,06,09,10,14.20
2016,07,06,09,11,14.20
2016,07,06,09,12,14.20
2016,07,06,09,13,14.20
2016,07,06,09,14,14.30
2016,07,06,09,15,14.30
2016,07,06,09,16,14.40
2016,07,06,09,17,14.40
2016,07,06,09,18,14.40
2016,07,06,09,19,14.50
2016,07,06,09,20,14.50
2016,07,06,09,21,14.60
2016,07,06,09,22,14.60
2016,07,06,09,23,14.70
2016,07,06,09,24,14.70
2016,07,06,09,25,14.70
2016,07,06,09,26,14.80
2016,07,06,09,27,14.80
2016,07,06,09,28,14.90
2016,07,06,09,29,15.00
2016,07,06,09,30,15.00
2016,07,06,09,31,15.10
2016,07,06,09,32,15.20
2016,07,06,09,33,15.20
2016,07,06,09,34,15.30
2016,07,06,09,35,15.30
2016,07,06,09,36,15.40
2016,07,06,09,37,15.40
2016,07,06,09,38,15.40
2016,07,06,09,39,15.50
2016,07,06,09,40,15.50
2016,07,06,09,41,15.50
2016,07,06,09,42,15.60
2016,07,06,09,43,15.60
2016,07,06,09,44,15.60
2016,07,06,09,45,15.60
2016,07,06,09,46,15.60
2016,07,06,09,47,15.50
2016,07,06,09,48,15.40
2016,07,06,09,49,15.50
2016,07,06,09,50,15.50
2016,07,06,09,51,15.60
2016,07,06,09,52,15.60
2016,07,06,09,53,15.70
2016,07,06,09,54,15.80
2016,07,06,09,55,15.90
2016,07,06,09,56,16.00
2016,07,06,09,57,16.10
2016,07,06,09,58,16.20
2016,07,06,09,59,16.30
2016,07,06,10,00,16.30
2016,07,06,10,01,16.40
2016,07,06,10,02,16.40
2016,07,06,10,03,16.40
2016,07,06,10,04,16.50
2016,07,06,10,05,16.50
2016,07,06,10,06,16.70
2016,07,06,10,07,16.70
2016,07,06,10,08,16.80
2016,07,06,10,09,16.90
2016,07,06,10,10,16.90
2016,07,06,10,11,16.90
2016,07,06,10,12,17.00
2016,07,06,10,13,17.10
2016,07,06,10,14,17.10
2016,07,06,10,15,17.10
2016,07,06,10,16,17.10
2016,07,06,10,17,17.10
2016,07,06,10,18,17.10
2016,07,06,10,19,17.10
2016,07,06,10,20,17.10
2016,07,06,10,21,17.00
2016,07,06,10,22,16.90
2016,07,06,10,23,16.70
2016,07,06,10,24,16.60
2016,07,06,10,25,16.60
2016,07,06,10,26,16.60
2016,07,06,10,27,16.50
2016,07,06,10,28,16.40
2016,07,06,10,29,16.40
2016,07,06,10,30,16.50
2016,07,06,10,31,16.60
2016,07,06,10,32,16.70
2016,07,06,10,33,16.80
2016,07,06,10,34,16.80
2016,07,06,10,35,16.70
2016,07,06,10,36,16.70
2016,07,06,10,37,16.60
2016,07,06,10,38,16.60
2016,07,06,10,39,16.60
2016,07,06,10,40,16.60
2016,07,06,10,41,16.70
2016,07,06,10,42,16.70
2016,07,06,10,43,16.70
2016,07,06,10,44,16.70
2016,07,06,10,45,16.70
2016,07,06,10,46,16.70
2016,07,06,10,47,16.70
2016,07,06,10,48,16.70
2016,07,06,10,49,16.70
2016,07,06,10,50,16.80
2016,07,06,10,51,16.90
2016,07,06,10,52,16.90
2016,07,06,10,53,16.90
2016,07,06,10,54,16.80
2016,07,06,10,55,16.80
2016,07,06,10,56,16.90
2016,07,06,10,57,16.90
2016,07,06,10,58,17.00
2016,07,06,10,59,17.00
2016,07,06,11,00,17.10
2016,07,06,11,01,17.20
2016,07,06,11,02,17.30
2016,07,06,11,03,17.30
2016,07,06,11,04,17.40
2016,07,06,11,05,17.50
2016,07,06,11,06,17.50
2016,07,06,11,07,17.50
2016,07,06,11,08,17.60
2016,07,06,11,09,17.60
2016,07,06,11,10,17.70
2016,07,06,11,11,17.70
2016,07,06,11,12,17.50
2016,07,06,11,13,17.40
2016,07,06,11,14,17.40
2016,07,06,11,15,17.40
2016,07,06,11,16,17.40
2016,07,06,11,17,17.40
2016,07,06,11,18,17.40
2016,07,06,11,19,17.40
2016,07,06,11,20,17.30
2016,07,06,11,21,17.30
2016,07,06,11,22,17.30
2016,07,06,11,23,17.30
2016,07,06,11,24,17.40
2016,07,06,11,25,17.40
2016,07,06,11,26,17.50
2016,07,06,11,27,17.50
2016,07,06,11,28,17.60
2016,07,06,11,29,17.60
2016,07,06,11,30,17.60
2016,07,06,11,31,17.60
2016,07,06,11,32,17.50
2016,07,06,11,33,17.50
2016,07,06,11,34,17.40
2016,07,06,11,35,17.30
2016,07,06,11,36,17.30
2016,07,06,11,37,17.20
2016,07,06,11,38,17.20
2016,07,06,11,39,17.20
2016,07,06,11,40,17.20
2016,07,06,11,41,17.20
2016,07,06,11,42,17.30
2016,07,06,11,43,17.40
2016,07,06,11,44,17.50
2016,07,06,11,45,17.50
2016,07,06,11,46,17.50
2016,07,06,11,47,17.60
2016,07,06,11,48,17.60
2016,07,06,11,49,17.60
2016,07,06,11,50,17.60
2016,07,06,11,51,17.70
2016,07,06,11,52,17.70
2016,07,06,11,53,17.70
2016,07,06,11,54,17.70
2016,07,06,11,55,17.70
2016,07,06,11,56,17.60
2016,07,06,11,57,17.60
2016,07,06,11,58,17.50
2016,07,06,11,59,17.40
2016,07,06,12,00,17.30
2016,07,06,12,01,17.30
2016,07,06,12,02,17.30
2016,07,06,12,03,17.40
2016,07,06,12,04,17.50
2016,07,06,12,05,17.60
2016,07,06,12,06,17.70
2016,07,06,12,07,17.70
2016,07,06,12,08,17.70
2016,07,06,12,09,17.60
2016,07,06,12,10,17.60
2016,07,06,12,11,17.50
2016,07,06,12,12,17.40
2016,07,06,12,13,17.40
2016,07,06,12,14,17.30
2016,07,06,12,15,17.30
2016,07,06,12,16,17.30
2016,07,06,12,17,17.20
2016,07,06,12,18,17.30
2016,07,06,12,19,17.20
2016,07,06,12,20,17.20
2016,07,06,12,21,17.20
2016,07,06,12,22,17.30
2016,07,06,12,23,17.40
2016,07,06,12,24,17.30
2016,07,06,12,25,17.30
2016,07,06,12,26,17.30
2016,07,06,12,27,17.20
2016,07,06,12,28,17.10
2016,07,06,12,29,17.10
2016,07,06,12,30,17.10
2016,07,06,12,31,17.20
2016,07,06,12,32,17.20
2016,07,06,12,33,17.30
2016,07,06,12,34,17.30
2016,07,06,12,35,17.30
2016,07,06,12,36,17.30
2016,07,06,12,37,17.30
2016,07,06,12,38,17.30
2016,07,06,12,39,17.30
2016,07,06,12,40,17.30
2016,07,06,12,41,17.30
2016,07,06,12,42,17.40
2016,07,06,12,43,17.50
2016,07,06,12,44,17.60
2016,07,06,12,45,17.70
2016,07,06,12,46,17.80
2016,07,06,12,47,17.90
2016,07,06,12,48,17.80
2016,07,06,12,49,17.70
2016,07,06,12,50,17.60
2016,07,06,12,51,17.50
2016,07,06,12,52,17.50
2016,07,06,12,53,17.60
2016,07,06,12,54,17.70
2016,07,06,12,55,17.80
2016,07,06,12,56,17.80
2016,07,06,12,57,17.80
2016,07,06,12,58,17.70
2016,07,06,12,59,17.70
2016,07,06,13,00,17.60
2016,07,06,13,01,17.50
2016,07,06,13,02,17.50
2016,07,06,13,03,17.50
2016,07,06,13,04,17.50
2016,07,06,13,05,17.60
2016,07,06,13,06,17.80
2016,07,06,13,07,17.90
2016,07,06,13,08,17.90
2016,07,06,13,09,18.00
2016,07,06,13,10,18.10
2016,07,06,13,11,18.00
2016,07,06,13,12,17.90
2016,07,06,13,13,17.90
2016,07,06,13,14,17.90
2016,07,06,13,15,17.90
2016,07,06,13,16,17.90
2016,07,06,13,17,18.00
2016,07,06,13,18,18.10
2016,07,06,13,19,18.10
2016,07,06,13,20,18.10
2016,07,06,13,21,18.20
2016,07,06,13,22,18.30
2016,07,06,13,23,18.30
2016,07,06,13,24,18.20
2016,07,06,13,25,18.20
2016,07,06,13,26,18.10
2016,07,06,13,27,18.10
2016,07,06,13,28,18.10
2016,07,06,13,29,18.10
2016,07,06,13,30,18.10
2016,07,06,13,31,18.20
2016,07,06,13,32,18.20
2016,07,06,13,33,18.20
2016,07,06,13,34,18.20
2016,07,06,13,35,18.20
2016,07,06,13,36,18.30
2016,07,06,13,37,18.30
2016,07,06,13,38,18.30
2016,07,06,13,39,18.40
2016,07,06,13,40,18.50
2016,07,06,13,41,18.60
2016,07,06,13,42,18.60
2016,07,06,13,43,18.60
2016,07,06,13,44,18.70
2016,07,06,13,45,18.80
2016,07,06,13,46,18.80
2016,07,06,13,47,18.80
2016,07,06,13,48,18.90
2016,07,06,13,49,18.90
2016,07,06,13,50,19.00
2016,07,06,13,51,19.10
2016,07,06,13,52,19.10
2016,07,06,13,53,19.10
2016,07,06,13,54,19.20
2016,07,06,13,55,19.10
2016,07,06,13,56,19.00
2016,07,06,13,57,18.90
2016,07,06,13,58,18.90
2016,07,06,13,59,18.90
2016,07,06,14,00,19.00
2016,07,06,14,01,19.00
2016,07,06,14,02,19.10
2016,07,06,14,03,19.10
2016,07,06,14,04,19.20
2016,07,06,14,05,19.20
2016,07,06,14,06,19.20
2016,07,06,14,07,19.20
2016,07,06,14,08,19.20
2016,07,06,14,09,19.20
2016,07,06,14,10,19.30
2016,07,06,14,11,19.30
2016,07,06,14,12,19.30
2016,07,06,14,13,19.30
2016,07,06,14,14,19.40
2016,07,06,14,15,19.50
2016,07,06,14,16,19.60
2016,07,06,14,17,19.60
2016,07,06,14,18,19.60
2016,07,06,14,19,19.60
2016,07,06,14,20,19.50
2016,07,06,14,21,19.50
2016,07,06,14,22,19.60
2016,07,06,14,23,19.70
2016,07,06,14,24,19.80
2016,07,06,14,25,19.80
2016,07,06,14,26,19.90
2016,07,06,14,27,19.90
2016,07,06,14,28,19.90
2016,07,06,14,29,19.90
2016,07,06,14,30,19.90
2016,07,06,14,31,19.90
2016,07,06,14,32,19.80
2016,07,06,14,33,19.80
2016,07,06,14,34,19.60
2016,07,06,14,35,19.60
2016,07,06,14,36,19.60
2016,07,06,14,37,19.70
2016,07,06,14,38,19.70
2016,07,06,14,39,19.70
2016,07,06,14,40,19.60
2016,07,06,14,41,19.50
2016,07,06,14,42,19.40
2016,07,06,14,43,19.30
2016,07,06,14,44,19.30
2016,07,06,14,45,19.20
2016,07,06,14,46,19.20
2016,07,06,14,47,19.20
2016,07,06,14,48,19.20
2016,07,06,14,49,19.20
2016,07,06,14,50,19.20
2016,07,06,14,51,19.20
2016,07,06,14,52,19.30
2016,07,06,14,53,19.40
2016,07,06,14,54,19.60
2016,07,06,14,55,19.70
2016,07,06,14,56,19.80
2016,07,06,14,57,19.70
2016,07,06,14,58,19.80
2016,07,06,14,59,19.80
2016,07,06,15,00,19.80
2016,07,06,15,01,19.70
2016,07,06,15,02,19.80
2016,07,06,15,03,19.80
2016,07,06,15,04,19.90
2016,07,06,15,05,20.00
2016,07,06,15,06,20.00
2016,07,06,15,07,20.10
2016,07,06,15,08,20.10
2016,07,06,15,09,20.10
2016,07,06,15,10,20.00
2016,07,06,15,11,20.00
2016,07,06,15,12,20.00
2016,07,06,15,13,20.00
2016,07,06,15,14,20.10
2016,07,06,15,15,20.20
2016,07,06,15,16,20.20
2016,07,06,15,17,20.30
2016,07,06,15,18,20.30
2016,07,06,15,19,20.20
2016,07,06,15,20,20.20
2016,07,06,15,21,20.30
2016,07,06,15,22,20.30
2016,07,06,15,23,20.20
2016,07,06,15,24,20.20
2016,07,06,15,25,20.20
2016,07,06,15,26,20.20
2016,07,06,15,27,20.20
2016,07,06,15,28,20.20
2016,07,06,15,29,20.20
2016,07,06,15,30,20.20
2016,07,06,15,31,20.20
2016,07,06,15,32,20.10
2016,07,06,15,33,20.10
2016,07,06,15,34,20.20
2016,07,06,15,35,20.40
2016,07,06,15,36,20.40
2016,07,06,15,37,20.40
2016,07,06,15,38,20.40
2016,07,06,15,39,20.40
2016,07,06,15,40,20.30
2016,07,06,15,41,20.20
2016,07,06,15,42,20.20
2016,07,06,15,43,20.20
2016,07,06,15,44,20.30
2016,07,06,15,45,20.30
2016,07,06,15,46,20.40
2016,07,06,15,47,20.40
2016,07,06,15,48,20.50
2016,07,06,15,49,20.60
2016,07,06,15,50,20.60
2016,07,06,15,51,20.60
2016,07,06,15,52,20.60
2016,07,06,15,53,20.60
2016,07,06,15,54,20.50
2016,07,06,15,55,20.40
2016,07,06,15,56,20.40
2016,07,06,15,57,20.50
2016,07,06,15,58,20.50
2016,07,06,15,59,20.40
2016,07,06,16,00,20.40
2016,07,06,16,01,20.40
2016,07,06,16,02,20.30
2016,07,06,16,03,20.30
2016,07,06,16,04,20.20
2016,07,06,16,05,20.10
2016,07,06,16,06,20.00
2016,07,06,16,07,19.90
2016,07,06,16,08,19.90
2016,07,06,16,09,20.00
2016,07,06,16,10,20.10
2016,07,06,16,11,20.20
2016,07,06,16,12,20.20
2016,07,06,16,13,20.20
2016,07,06,16,14,20.10
2016,07,06,16,15,20.20
2016,07,06,16,16,20.20
2016,07,06,16,17,20.10
2016,07,06,16,18,20.10
2016,07,06,16,19,20.10
2016,07,06,16,20,20.10
2016,07,06,16,21,20.10
2016,07,06,16,22,20.20
2016,07,06,16,23,20.20
2016,07,06,16,24,20.20
2016,07,06,16,25,20.30
2016,07,06,16,26,20.40
2016,07,06,16,27,20.50
2016,07,06,16,28,20.50
2016,07,06,16,29,20.60
2016,07,06,16,30,20.70
2016,07,06,16,31,20.70
2016,07,06,16,32,20.70
2016,07,06,16,33,20.70
2016,07,06,16,34,20.80
2016,07,06,16,35,20.80
2016,07,06,16,36,20.80
2016,07,06,16,37,20.80
2016,07,06,16,38,20.90
2016,07,06,16,39,20.90
2016,07,06,16,40,20.90
2016,07,06,16,41,21.00
2016,07,06,16,42,21.00
2016,07,06,16,43,20.90
2016,07,06,16,44,20.90
2016,07,06,16,45,20.90
2016,07,06,16,46,20.90
2016,07,06,16,47,20.90
2016,07,06,16,48,20.90
2016,07,06,16,49,20.90
2016,07,06,16,50,20.80
2016,07,06,16,51,20.80
2016,07,06,16,52,20.80
2016,07,06,16,53,20.80
2016,07,06,16,54,20.80
2016,07,06,16,55,20.80
2016,07,06,16,56,20.80
2016,07,06,16,57,20.80
2016,07,06,16,58,20.70
2016,07,06,16,59,20.70
2016,07,06,17,00,20.60
2016,07,06,17,01,20.60
2016,07,06,17,02,20.60
2016,07,06,17,03,20.70
2016,07,06,17,04,20.70
2016,07,06,17,05,20.70
2016,07,06,17,06,20.80
2016,07,06,17,07,20.90
2016,07,06,17,08,20.90
2016,07,06,17,09,21.00
2016,07,06,17,10,21.00
2016,07,06,17,11,21.10
2016,07,06,17,12,21.10
2016,07,06,17,13,21.20
2016,07,06,17,14,21.20
2016,07,06,17,15,21.20
2016,07,06,17,16,21.20
2016,07,06,17,17,21.30
2016,07,06,17,18,21.30
2016,07,06,17,19,21.40
2016,07,06,17,20,21.40